TimeCDT,TemperatureF,Dew PointF,Humidity,Sea Level PressureIn,VisibilityMPH,Wind Direction,Wind SpeedMPH,Gust SpeedMPH,PrecipitationIn,Events,Conditions,WindDirDegrees,DateUTC
12:12 AM,30.2,21.2,69,30.45,10.0,North,3.5,-,N/A,,Clear,360,2013-05-03 05:12:00
12:33 AM,30.2,21.2,69,30.45,10.0,North,4.6,-,N/A,,Clear,10,2013-05-03 05:33:00
12:53 AM,28.4,21.2,74,30.44,10.0,North,3.5,-,N/A,,Clear,10,2013-05-03 05:53:00
1:12 AM,28.4,21.2,74,30.43,10.0,NNE,4.6,-,N/A,,Clear,20,2013-05-03 06:12:00
1:33 AM,28.4,21.2,74,30.42,10.0,NNE,3.5,-,N/A,,Clear,20,2013-05-03 06:33:00
1:53 AM,28.4,21.2,74,30.42,10.0,Calm,Calm,-,N/A,,Clear,0,2013-05-03 06:53:00
2:13 AM,28.4,21.2,74,30.42,10.0,Calm,Calm,-,N/A,,Clear,0,2013-05-03 07:13:00
2:33 AM,28.4,21.2,74,30.41,10.0,Calm,Calm,-,N/A,,Clear,0,2013-05-03 07:33:00
2:52 AM,26.6,21.2,80,30.40,10.0,Calm,Calm,-,N/A,,Clear,0,2013-05-03 07:52:00
3:13 AM,26.6,21.2,80,30.40,10.0,Calm,Calm,-,N/A,,Clear,0,2013-05-03 08:13:00
3:33 AM,26.6,21.2,80,30.39,10.0,North,3.5,-,N/A,,Clear,10,2013-05-03 08:33:00
3:52 AM,26.6,21.2,80,30.39,10.0,Calm,Calm,-,N/A,,Clear,0,2013-05-03 08:52:00
4:13 AM,26.6,21.2,80,30.39,10.0,Calm,Calm,-,N/A,,Clear,0,2013-05-03 09:13:00
4:33 AM,26.6,21.2,80,30.39,10.0,Calm,Calm,-,N/A,,Clear,0,2013-05-03 09:33:00
4:52 AM,26.6,21.2,80,30.38,10.0,Calm,Calm,-,N/A,,Scattered Clouds,0,2013-05-03 09:52:00
5:13 AM,26.6,21.2,80,30.38,10.0,North,3.5,-,N/A,,Overcast,350,2013-05-03 10:13:00
5:33 AM,26.6,19.4,74,30.38,10.0,Calm,Calm,-,N/A,,Overcast,0,2013-05-03 10:33:00
5:53 AM,26.6,19.4,74,30.38,10.0,North,3.5,-,N/A,,Mostly Cloudy,360,2013-05-03 10:53:00
6:13 AM,26.6,19.4,74,30.38,10.0,Calm,Calm,-,N/A,,Mostly Cloudy,0,2013-05-03 11:13:00
6:33 AM,26.6,21.2,80,30.38,10.0,North,4.6,-,N/A,,Scattered Clouds,360,2013-05-03 11:33:00
6:52 AM,26.6,21.2,80,30.38,10.0,North,3.5,-,N/A,,Clear,10,2013-05-03 11:52:00
7:13 AM,28.4,21.2,74,30.38,10.0,NNE,6.9,-,N/A,,Clear,20,2013-05-03 12:13:00
7:33 AM,28.4,21.2,74,30.37,10.0,NNE,6.9,-,N/A,,Clear,20,2013-05-03 12:33:00
7:52 AM,30.2,21.2,69,30.37,10.0,NNE,9.2,-,N/A,,Clear,30,2013-05-03 12:52:00
8:13 AM,28.4,21.2,74,30.36,10.0,NNE,6.9,-,N/A,,Scattered Clouds,30,2013-05-03 13:13:00
8:33 AM,30.2,21.2,69,30.36,10.0,NNE,6.9,-,N/A,,Scattered Clouds,20,2013-05-03 13:33:00
8:52 AM,30.2,21.2,69,30.36,10.0,NE,4.6,-,N/A,,Mostly Cloudy,40,2013-05-03 13:52:00
9:13 AM,30.2,21.2,69,30.36,10.0,NE,8.1,-,N/A,,Scattered Clouds,40,2013-05-03 14:13:00
9:33 AM,30.2,21.2,69,30.35,10.0,North,5.8,-,N/A,,Mostly Cloudy,10,2013-05-03 14:33:00
9:52 AM,30.2,21.2,69,30.35,10.0,NNE,9.2,-,N/A,,Overcast,30,2013-05-03 14:52:00
10:13 AM,32.0,21.2,64,30.34,10.0,NNE,6.9,-,N/A,,Mostly Cloudy,30,2013-05-03 15:13:00
10:33 AM,32.0,21.2,64,30.34,10.0,NNE,5.8,-,N/A,,Scattered Clouds,20,2013-05-03 15:33:00
10:52 AM,32.0,21.2,64,30.33,10.0,North,4.6,-,N/A,,Clear,10,2013-05-03 15:52:00
11:13 AM,33.8,21.2,60,30.33,10.0,NE,8.1,-,N/A,,Clear,50,2013-05-03 16:13:00
11:32 AM,33.8,21.2,60,30.33,10.0,NNE,8.1,-,N/A,,Clear,30,2013-05-03 16:32:00
11:53 AM,33.8,21.2,60,30.32,10.0,NNE,6.9,-,N/A,,Scattered Clouds,20,2013-05-03 16:53:00
12:13 PM,33.8,21.2,60,30.32,10.0,North,5.8,-,N/A,,Scattered Clouds,10,2013-05-03 17:13:00
12:32 PM,35.6,21.2,56,30.31,10.0,NNE,5.8,-,N/A,,Mostly Cloudy,30,2013-05-03 17:32:00
12:53 PM,33.8,23.0,65,30.30,10.0,NNE,6.9,-,N/A,Snow,Light Snow,20,2013-05-03 17:53:00
1:13 PM,33.8,24.8,70,30.29,5.0,NE,9.2,-,N/A,Snow,Light Snow,50,2013-05-03 18:13:00
1:32 PM,33.8,24.8,70,30.29,5.0,NE,6.9,-,N/A,Snow,Light Snow,40,2013-05-03 18:32:00
1:53 PM,33.8,26.6,75,30.29,4.0,NE,6.9,-,N/A,Snow,Light Snow,50,2013-05-03 18:53:00
2:13 PM,33.8,26.6,75,30.29,4.0,NNE,6.9,-,N/A,Snow,Light Snow,30,2013-05-03 19:13:00
2:32 PM,33.8,28.4,81,30.29,10.0,NNE,6.9,-,N/A,Rain,Light Rain,30,2013-05-03 19:32:00
2:51 PM,33.8,28.4,81,30.28,10.0,North,5.8,-,N/A,Rain,Light Rain,10,2013-05-03 19:51:00
3:13 PM,33.8,28.4,81,30.28,7.0,NNE,4.6,-,N/A,Rain,Rain,20,2013-05-03 20:13:00
3:33 PM,33.8,28.4,81,30.27,7.0,NNE,8.1,-,N/A,Rain,Rain,30,2013-05-03 20:33:00
3:52 PM,33.8,28.4,81,30.27,10.0,NNE,8.1,-,N/A,,Light Drizzle,30,2013-05-03 20:52:00
4:13 PM,33.8,28.4,81,30.26,10.0,NNE,6.9,-,N/A,Rain,Light Rain,20,2013-05-03 21:13:00
4:33 PM,33.8,28.4,81,30.26,10.0,NNE,6.9,-,N/A,,Light Drizzle,30,2013-05-03 21:33:00
4:52 PM,33.8,28.4,81,30.26,10.0,NE,6.9,-,N/A,Rain,Light Rain,40,2013-05-03 21:52:00
5:13 PM,33.8,30.2,87,30.26,5.0,NE,5.8,-,N/A,Rain,Light Rain,40,2013-05-03 22:13:00
5:33 PM,32.0,30.2,93,30.25,2.5,NE,4.6,-,N/A,,Overcast,40,2013-05-03 22:33:00
5:52 PM,32.0,30.2,93,30.26,2.5,NNE,4.6,-,0.01,Snow,Light Snow,30,2013-05-03 22:52:00
6:13 PM,32.0,30.2,93,30.26,2.0,NNE,5.8,-,0.01,,Overcast,30,2013-05-03 23:13:00
6:33 PM,32.0,30.2,93,30.26,1.8,NNE,8.1,-,0.02,,Overcast,30,2013-05-03 23:33:00
6:52 PM,32.0,30.2,93,30.26,2.0,NNE,3.5,-,0.02,,Overcast,30,2013-05-03 23:52:00
7:13 PM,32.0,30.2,93,30.26,2.0,NE,6.9,-,0.01,,Overcast,40,2013-05-04 00:13:00
7:33 PM,30.2,30.2,100,30.26,4.0,ENE,5.8,-,0.01,,Overcast,60,2013-05-04 00:33:00
7:52 PM,30.2,30.2,100,30.26,3.0,NNE,8.1,-,0.01,,Overcast,30,2013-05-04 00:52:00
8:13 PM,30.2,30.2,100,30.26,3.0,NE,4.6,-,N/A,,Overcast,40,2013-05-04 01:13:00
8:33 PM,30.2,30.2,100,30.26,5.0,NNE,6.9,-,N/A,,Overcast,30,2013-05-04 01:33:00
8:52 PM,30.2,30.2,100,30.26,5.0,NNE,6.9,-,N/A,,Overcast,30,2013-05-04 01:52:00
9:13 PM,30.2,30.2,100,30.26,4.0,NNE,4.6,-,N/A,Snow,Light Snow,30,2013-05-04 02:13:00
9:33 PM,30.2,30.2,100,30.26,5.0,NNE,4.6,-,N/A,,Overcast,30,2013-05-04 02:33:00
9:52 PM,30.2,30.2,100,30.25,3.0,NE,5.8,-,0.01,Snow,Light Snow,40,2013-05-04 02:52:00
10:13 PM,30.2,30.2,100,30.25,7.0,NE,8.1,-,N/A,Snow,Light Snow,50,2013-05-04 03:13:00
10:32 PM,30.2,28.4,93,30.24,10.0,NE,6.9,-,N/A,,Overcast,40,2013-05-04 03:32:00
10:53 PM,30.2,28.4,93,30.24,10.0,NE,6.9,-,N/A,,Overcast,40,2013-05-04 03:53:00
11:13 PM,30.2,28.4,93,30.23,10.0,NE,5.8,-,N/A,,Overcast,40,2013-05-04 04:13:00
11:32 PM,30.2,28.4,93,30.24,10.0,NE,4.6,-,N/A,,Overcast,40,2013-05-04 04:32:00
11:53 PM,30.2,28.4,93,30.24,10.0,NE,3.5,-,N/A,,Overcast,50,2013-05-04 04:53:00